Regional Weather Roundup
Issued by NWS Charleston, SC

Current Version | Previous Version | Graphics & Text | Print | Product List | Glossary On
Versions: 1 2 3 4 5 6 7 8 9 10 11 12 13 14 15 16 17 18 19 20 21 22 23 24 25 26 27 28 29 30 31 32 33 34 35 36 37 38 39 40 41 42 43 44 45 46 47 48 49 50
000
ASUS42 KCHS 050827
RWRCHS

REGIONAL WEATHER ROUNDUP
NATIONAL WEATHER SERVICE CHARLESTON SC
400 AM EDT SUN JUL 05 2015

NOTE: "FAIR" INDICATES FEW OR NO CLOUDS BELOW 12,000 FEET WITH NO
SIGNIFICANT WEATHER AND/OR OBSTRUCTIONS TO VISIBILITY.

NOT ALL STATIONS ARE QUALITY CONTROLLED BY THE NATIONAL
WEATHER SERVICE. USE DATA WITH CAUTION...ESPECIALLY
DEWPOINT OBSERVATIONS.

SCZ027-030-031-034>040-042>050-050900-
...SOUTHEAST SOUTH CAROLINA...

CITY           SKY/WX    TMP DP  RH WIND       PRES   REMARKS
N CHARLESTON   PTCLDY    73  71  93 SW5       30.09S
WATERFRONT PAR   N/A     77  74  91 VRB2      30.07R
MOUNT PLEASANT FAIR      73  72  94 CALM      30.10R FOG
JOHNS ISLAND   FAIR      75  73  94 CALM      30.10S
PINOPOLIS      NOT AVBL
MONCKS CORNER  FAIR      72  70  94 CALM      30.10S FOG
SUMMERVILLE    FAIR      72  72 100 CALM      30.10F
BEAUFORT MCAS  PTCLDY    74  71  91 SW6       30.10S
BEAUFORT ARPT  FAIR      75  73  94 SW5       30.09F
HILTON HEAD IS PTCLDY    75  73  94 SW6       30.11S
WALTERBORO     MOSUNNY   70  70 100 S3        30.10F
ALLENDALE      FAIR      72  70  94 CALM      30.09R

...SOUTHERN MIDLANDS AND PEE DEE...

CITY           SKY/WX    TMP DP  RH WIND       PRES   REMARKS
GEORGETOWN     NOT AVBL
KINGSTREE      NOT AVBL
ORANGEBURG     MOCLDY    71  68  90 CALM      30.08F
BARNWELL       FAIR      72  72 100 CALM      30.10R
AIKEN          NOT AVBL
MANNING        FAIR      72  68  88 SW3       30.10R
COLUMBIA       CLOUDY    74  68  81 SW3       30.07S
SUMTER         NOT AVBL
FLORENCE       MOCLDY    74  68  81 SW7       30.08R
MYRTLE BEACH   MOCLDY    75  66  73 CALM      30.11S
N MYRTLE BEACH PTCLDY    76  66  71 SW7       30.09R

$$

GAZ063-065-086>088-099>101-113>116-118-119-134>141-150-050900-
...SOUTHEAST GEORGIA...

CITY           SKY/WX    TMP DP  RH WIND       PRES   REMARKS
SAVANNAH ARPT  PTCLDY    73  69  87 S5        30.10F
HUNTER AAF     MOCLDY    72  72 100 SE2       30.08S
FORT STEWART   PTCLDY    71  69  92 S2        30.08F
STATESBORO     NOT AVBL
SYLVANIA       SUNNY     72  72 100 CALM      30.11S
CLAXTON        FAIR      70  70 100 CALM      30.10S

...CSRA...CENTRAL AND FAR SOUTHEAST GEORGIA...

CITY           SKY/WX    TMP DP  RH WIND       PRES   REMARKS
THOMSON        CLOUDY    74  74  99 SW5       30.13S
AUGUSTA-BUSH   CLOUDY    72  70  93 CALM      30.08R
AUGUSTA-DANIEL CLOUDY    73  69  87 S5        30.09R
SWAINSBORO     FAIR     N/A N/A N/A CALM      30.11S
VIDALIA        PTCLDY    72  70  94 SW3       30.11R
EASTMAN        FAIR      70  70 100 CALM      30.13S
HAZLEHURST     FAIR      72  72 100 CALM      30.10S
ALMA           CLEAR     71  69  93 CALM      30.10F
WAYCROSS       CLEAR     74  73  99 CALM      30.11S
JESUP          FAIR      72  72 100 CALM      30.12R
BAXLEY         FAIR      72  70  94 CALM      30.11R
BRUNSWICK      PTCLDY    72  70  94 CALM      30.11F
SAINT SIMONS   MOCLDY    74  72  93 CALM      30.11S

$$

SCZ027-028-034-036>038-045-046-048>050-GAZ119-141-050900-
...LAKE AND SUPPLEMENTAL COASTAL OBSERVATIONS...

STATION/POSITION TIME  TEMP    WIND        PRES    WAVE   SWELL
                       AIR SEA DIR/SP/G            HT/PER HT/PER/DIR
                 (UTC) (F)     (DEG/KT/KT) (MB)    (FT/S) (FT/S/D)
UPR LAKE MARION  NOT AVBL
WINYAH BAY       0700   76     240/  5     1018.0S
LAKE MURRAY      0700   76     240/  7/ 11 1017.6F
ACE BASIN NERRS  NOT AVBL
FORT PULASKI     0800   75 84  210/  4/  6 1019.7F
SAPELO ISLAND    0800   75     180/  3     1019.0S

$$

ANZ835-935-AMZ111-154-330-350-352-354-370-450-454-472-050900-
...C-MAN AND BUOY OBSERVATIONS...

STATION/POSITION TIME  TEMP    WIND        PRES    WAVE   SWELL
                       AIR SEA DIR/SP/G            HT/PER HT/PER/DIR
                 (UTC) (F)     (DEG/KT/KT) (MB)    (FT/S) (FT/S/D)
BUOY 41004       0750   81 81  220/ 14/ 16 1018.6S   3/ 9   2/ 9
BUOY 41008       0750   79 79  220/  8/ 10 1019.6F   2/ 9   2/110/ 9
FOLLY BEACH CMAN 0800   79     220/ 12/ 15 1019.0F
CAPERS NEARSHORE 0708   80     230/ 16/ 17 1019.3S
FRIPP NEARSHORE  0700   80     240/ 14/ 16 1018.9R


STATION/POSITION TIME  TEMP    WIND        PRES    WAVE   SWELL
                       AIR SEA DIR/SP/G            HT/PER HT/PER/DIR
                 (UTC) (F)     (DEG/KT/KT) (MB)    (FT/S) (FT/S/D)
5E ST. MARYS GA  0721      77                N/A     1/ 9
FRYING PAN BUOY  0750   80 78  220/ 12/ 14 1019.5R   3/ 5   2/160/ 6
BUOY 41025       0750   80 81  230/ 19/ 21 1017.9R   5/ 5   2/180/ 9
CAPE LOOKOUT NC  0800   79     230/ 11/ 15 1018.4R
BUOY 41002       0750   78 80  260/ 19/ 23 1021.3F   4/ 6   2/ 70/15
BUOY 41010       0720   83 84  160/ 10/ 12 1020.7F
ST AUGUSTINE FL  0800   74 72  220/  2/  3 1020.7F


$$


USA.gov is the U.S. government's official web portal to all federal, state and local government web resources and services.